Starlink 32431

operational
NORAD ID: 61256 Int'l Des: 2024-175 Owner: SPXS Country: US Constellation: starlink
LEOCIRCULAR

About Starlink 32431

Description loading...

Live Position

Loading 3D Globe...

Upcoming Passes

Altitude History

Altitude vs Time

uPlot chart will show altitude changes over time

Two-Line Element Set

1 61256U 24175P 25259.36496149 -.00000730 00000-0 -12532-4 0 9993
2 61256 53.1591 283.7638 0000815 88.4657 271.6437 15.30187780 54767
Epoch: Sep 16, 2025 • Age: 17 hours

Current Status

Altitude 476.0 km
Velocity 7.63 km/s
Sub-Earth Point 0.91°N, 105.27°W
Launch Date Sep 25, 2024
Age 0.9 years
Type internet

Technical Details

Classification Payload
Mass 730.00 kg
Dry Mass 700.00 kg
Total Mass 730.00 kg
Length 0.30 m
Diameter 4.10 m
Span 29.00 m
Shape Box + pan
Manufacturer SPXS
Bus Type Starlink V2M
Phase Status In Orbit
Owner/State SPXS/US

Large Constellations

Loading constellations...